Skip Page Navigation
NASA JPL Caltech
NASA Logo - Jet Propulsion Laboratory + View the NASA Portal
+ Center for Near-Earth Object Studies
JPL Home Earth Solar System Stars & Galaxies Technology
JPL Solar System Dynamics
BODIES ORBITS EPHEMERIDES TOOLS PHYSICAL DATA DISCOVERY FAQ SITE MAP
IMPORTANT: The SSD Announcement email list is now available. Major changes are coming in the near future, including possible hostname and/or URL changes. To be notified of such changes, subscribe to this email list.

Please visit this page for more details.


JPL Small-Body Database Browser
Search: [ help ]  
344932 (2004 TO174)
Classification: Main-belt Asteroid          SPK-ID: 2344932
Ephemeris | Orbit Diagram | Orbital Elements | Mission Design | Physical Parameters | Discovery Circumstances | Close-Approach Data ]

[ show orbit diagram ]
Orbital Elements at Epoch 2458600.5 (2019-Apr-27.0) TDB
Reference: JPL 6 (heliocentric ecliptic J2000)
 Element Value Uncertainty (1-sigma)   Units 
e .2121239999453181 1.2456e-07  
a 2.465365153739666 9.2257e-08 au
q 1.942402036002604 2.5393e-07 au
i 2.779343331315697 1.1042e-05 deg
node 166.9235489214435 0.00033904 deg
peri 175.496610755624 0.00038349 deg
M 291.8827286686696 0.00020589 deg
tp 2458868.031576313543
(2020-Jan-19.53157631)
0.00082342 TDB
period 1413.905248852465
3.87
7.9365e-05
2.173e-07
d
yr
n .2546139497623185 1.4292e-08 deg/d
Q 2.988328271476728 1.1183e-07 au
  Orbit Determination Parameters
   # obs. used (total)      89  
   data-arc span      5936 days (16.25 yr)  
   first obs. used      2000-09-03  
   last obs. used      2016-12-04  
   planetary ephem.      DE431  
   SB-pert. ephem.      SB431-N16  
   condition code      0  
   norm. resid. RMS      .64093  
   source      ORB  
   producer      Otto Matic  
   solution date      2017-Apr-10 08:25:13  

Additional Information
 Earth MOID = .933486 au 
 Jupiter MOID = 2.41678 au 
 T_jup = 3.454 
[ show covariance matrix ]

Ephemeris | Orbit Diagram | Orbital Elements | Mission Design | Physical Parameters | Discovery Circumstances | Close-Approach Data ]

Physical Parameter Table
Parameter Symbol Value Units Sigma Reference Notes
absolute magnitude H 17.8   n/a MPO397234  

344932 (2004 TO174)          Discovered 2004-Oct-09 by LINEAR at Socorro
Reference: 20121128/Numbers.arcLast Updated: 2012-12-03

[ show close-approach data ]
Alternate Designations
 2004 TO174 = 2008 ST195 
Ephemeris | Orbit Diagram | Orbital Elements | Mission Design | Physical Parameters | Discovery Circumstances | Close-Approach Data ]
ABOUT SSD CREDITS/AWARDS PRIVACY/COPYRIGHT GLOSSARY LINKS
FirstGov 2019-Dec-06 01:38 UT
(server date/time)  
NASA Home Page
Site Manager:   Ryan S. Park
Webmaster  Alan B. Chamberlin